Theta_e
315 313 314 315 315 314 312 311 312 313 312 313 315 316 318 319 319 327 334 328 327 332 331 331 333 334 335 334 333 339 344 343 339 338 341 343 344 346 346 345 345 343 343 342 341 340 339 339 340 340 341 341 340 340 340 340 340 340 339 339 338 337 337 335 334 332 331 330 328 327 326 325 324 322 321 320 319 319 318 316 316 315 314 313 312 311 310
315 315 316 317 316 315 313 311 311 312 312 313 315 314 316 318 317 321 325 323 327 335 333 331 332 333 332 333 333 334 339 344 343 339 341 344 345 346 345 345 344 344 343 342 341 341 339 339 340 340 340 341 340 340 340 340 340 339 339 338 337 337 336 334 333 331 330 328 327 326 325 324 323 321 320 319 319 318 316 316 315 315 314 312 311 310 310
317 317 316 317 317 316 316 314 311 311 312 313 314 315 316 317 317 320 323 323 327 334 335 335 336 335 331 330 333 337 337 341 345 345 342 342 344 346 345 345 344 343 343 342 341 341 340 339 340 340 340 340 340 339 340 339 340 339 338 338 337 336 335 333 331 330 328 327 326 325 324 323 322 321 320 318 318 317 316 315 315 314 313 312 311 310 310
321 319 317 318 318 318 319 318 314 313 313 314 315 316 317 316 317 319 321 322 325 327 329 332 336 338 336 332 332 337 337 337 341 347 346 342 343 346 345 344 345 344 343 342 342 341 340 339 340 340 339 339 339 339 339 339 339 339 337 337 336 335 333 332 330 329 327 326 325 324 323 322 322 321 319 318 317 316 315 315 315 314 313 312 311 310 309
323 321 319 320 321 322 324 322 318 316 316 316 316 316 318 319 319 320 322 325 327 325 326 328 330 336 339 335 331 331 333 336 338 341 344 342 345 350 347 344 345 345 343 343 341 340 340 339 340 340 339 339 339 338 339 339 339 338 337 336 335 334 332 330 328 327 327 326 324 323 322 322 321 320 319 317 316 315 315 315 314 313 312 312 311 310 309
323 322 321 323 324 324 326 323 320 319 318 318 317 318 319 319 320 324 326 326 325 327 330 329 330 337 338 335 335 333 330 334 335 333 334 335 340 346 344 342 345 345 343 342 339 338 340 340 340 340 339 339 339 338 338 338 338 337 336 335 334 333 331 329 327 326 326 325 324 323 322 321 320 320 318 316 315 315 315 314 313 312 312 311 311 310 309
322 322 322 324 325 324 323 321 320 320 320 320 319 319 320 319 320 323 323 321 321 324 328 329 330 336 337 334 336 334 329 331 333 332 332 332 333 335 335 338 344 344 344 343 338 337 340 340 339 339 338 338 339 338 338 338 338 337 335 334 333 331 329 328 326 325 325 324 323 322 321 321 320 319 318 316 315 314 314 314 313 312 311 311 310 309 309
323 323 322 324 325 322 322 323 322 323 325 325 323 322 320 318 320 321 318 318 319 321 326 326 325 329 332 328 327 326 326 330 333 333 335 335 334 334 334 338 343 343 343 341 339 338 339 339 339 339 338 338 338 338 337 337 337 336 335 333 332 330 328 326 325 325 324 323 322 321 321 320 320 319 317 315 314 314 314 313 312 311 311 310 310 309 308
323 324 322 324 324 324 325 326 323 323 325 326 326 326 324 319 318 320 320 318 318 319 323 324 323 325 325 323 322 322 325 331 333 332 334 335 335 335 336 338 339 339 339 338 339 339 339 338 338 338 337 337 337 337 337 336 336 335 333 332 330 329 327 326 325 324 323 322 322 321 321 320 320 319 316 314 313 313 313 312 311 310 310 309 309 309 308
323 324 323 324 325 326 327 326 324 323 321 322 325 327 327 323 318 319 320 319 320 322 322 322 323 322 321 322 324 326 331 333 331 331 334 334 334 335 337 338 336 336 338 339 339 339 338 338 338 337 337 337 336 336 336 335 335 333 331 330 329 328 326 325 324 324 323 322 322 321 320 320 320 318 315 314 313 313 312 311 310 310 310 309 309 308 307
323 323 324 326 326 327 329 328 327 325 322 323 326 327 329 329 326 325 324 321 322 323 322 322 321 319 320 321 321 331 346 345 334 332 332 330 332 335 334 335 336 335 338 339 338 338 338 337 337 337 336 336 335 335 335 334 333 331 330 329 328 327 326 325 324 324 323 322 322 321 320 320 319 317 314 313 313 312 311 310 310 309 309 308 308 308 308
324 323 325 326 326 327 328 327 327 327 325 323 324 328 331 330 329 331 331 328 326 322 320 321 320 319 320 319 323 341 357 351 338 336 334 332 337 338 333 333 336 336 338 339 337 337 337 336 336 336 336 335 335 334 334 333 332 331 330 328 327 326 325 324 324 323 323 322 321 321 320 319 318 316 314 312 312 311 310 310 309 309 308 307 307 306 307
324 323 324 325 326 328 328 325 324 328 327 324 325 329 331 328 326 328 330 334 336 329 322 320 319 320 320 320 332 352 355 344 341 340 336 335 338 336 332 334 338 338 338 338 337 337 337 336 335 335 335 334 333 333 333 332 332 332 330 328 327 326 325 324 324 323 322 322 320 320 319 319 317 314 313 312 312 311 310 309 309 308 307 306 306 306 306
324 324 325 326 327 328 327 324 325 326 326 327 329 329 328 326 326 326 326 331 338 337 334 326 321 326 331 332 342 355 353 349 350 342 335 337 339 335 334 336 338 337 337 337 337 336 336 335 335 334 334 333 332 332 333 332 332 331 330 328 327 326 325 324 323 322 321 320 320 319 319 318 316 314 313 312 311 310 309 308 308 307 306 306 306 306 305
324 323 323 325 329 330 326 327 330 329 327 329 329 328 328 328 327 326 325 327 331 337 344 340 331 336 346 346 345 349 351 354 352 344 340 344 346 342 338 337 338 337 337 336 336 335 335 334 334 333 332 332 331 332 332 332 332 331 330 329 327 326 325 325 323 322 321 320 319 319 318 317 315 314 312 311 309 309 308 307 306 305 304 304 304 304 304
321 323 325 328 332 332 328 329 333 331 328 329 328 327 331 331 327 326 325 325 326 328 334 342 343 346 351 349 345 345 348 351 349 344 342 344 344 342 339 337 337 337 336 336 336 335 334 333 333 332 332 331 330 331 331 331 331 331 330 328 327 326 325 324 323 322 321 320 319 318 317 316 315 313 311 309 308 308 307 305 304 303 303 303 303 304 305
321 325 328 327 326 327 326 328 330 327 327 329 328 326 329 330 328 326 325 325 326 323 324 333 343 348 349 348 346 345 347 347 345 341 340 338 337 338 338 336 336 336 335 335 335 334 333 333 333 332 331 330 330 330 331 331 331 331 330 328 327 325 324 322 321 320 320 319 318 317 316 315 313 312 310 309 307 306 305 304 304 304 304 305 305 305 306
322 323 323 322 323 324 325 326 327 326 325 326 326 326 327 327 326 326 326 326 327 326 324 327 334 342 348 348 346 345 344 341 337 334 334 334 332 332 334 334 335 336 335 334 334 334 333 333 332 332 331 330 330 330 330 331 331 330 329 327 325 323 321 320 319 319 319 317 316 315 315 314 312 311 310 309 307 306 305 304 304 305 305 306 305 305 306
323 323 323 323 324 325 326 326 326 327 326 326 326 325 325 326 327 327 328 329 327 327 328 326 327 338 348 349 347 347 344 341 336 331 330 331 329 328 330 331 332 334 335 333 333 333 333 333 332 332 331 330 330 330 330 330 330 329 327 325 322 321 320 319 319 318 317 316 315 314 313 312 311 310 309 309 307 306 305 305 305 305 305 305 305 304 304
322 323 324 324 324 325 326 327 326 326 328 330 330 326 324 326 329 330 331 331 329 329 331 327 325 331 340 344 346 346 340 337 335 332 330 331 330 328 327 327 329 332 333 333 333 332 332 333 332 331 331 331 330 331 330 329 329 327 324 322 320 318 318 318 317 316 316 314 313 312 312 311 311 309 309 308 307 306 305 305 305 304 304 304 304 303 303
324 325 324 325 327 327 325 325 326 326 327 328 328 326 325 327 329 330 331 332 331 331 331 328 326 328 330 333 338 339 335 331 330 329 330 330 329 327 327 327 328 331 331 332 333 332 332 332 332 332 331 331 330 331 330 329 328 324 321 320 319 317 316 316 315 315 314 313 313 312 311 311 310 310 309 308 307 306 306 305 305 305 304 303 303 303 302
326 327 325 326 329 327 324 324 327 327 326 327 327 326 326 328 329 329 329 329 329 330 329 327 328 330 327 326 330 332 331 330 330 329 330 330 328 327 328 328 328 329 329 330 331 331 332 332 332 332 331 330 330 329 329 329 326 323 321 319 318 316 315 314 314 313 312 312 312 311 310 310 309 309 308 308 307 306 305 305 305 305 304 304 303 302 303
327 327 326 326 327 326 324 326 328 328 327 330 332 329 327 329 330 329 329 328 328 329 328 327 330 331 329 327 328 327 327 328 329 328 329 331 330 329 328 328 328 328 328 329 329 330 331 332 332 331 331 330 329 328 327 326 325 323 321 319 317 315 314 313 313 312 311 311 311 310 310 309 309 308 307 307 306 306 305 305 305 304 304 304 303 302 303
326 325 324 325 326 325 324 325 327 328 328 331 333 332 330 329 327 327 328 329 329 329 329 329 330 329 328 328 328 327 326 326 326 325 326 327 328 328 327 327 327 327 327 328 329 330 331 331 331 331 330 329 329 328 326 324 323 321 320 318 316 315 314 312 311 311 311 310 310 310 309 309 308 308 307 306 306 306 305 305 305 304 303 303 303 302 303
327 326 325 324 324 324 323 324 325 327 327 328 330 330 330 329 328 328 329 330 331 331 330 330 329 328 328 329 328 327 327 326 324 324 326 326 327 327 327 326 326 327 326 327 329 330 330 330 330 330 329 329 329 327 326 324 323 321 319 318 316 314 313 311 310 310 310 310 309 309 309 309 308 308 307 306 305 305 305 305 305 304 304 303 303 302 302
324 324 325 325 325 323 323 324 325 325 325 327 328 329 328 329 329 329 328 329 331 331 332 334 332 328 327 328 328 328 328 327 324 324 326 326 326 326 327 327 326 326 326 327 329 329 330 329 329 329 328 328 328 327 326 325 323 321 320 318 316 314 313 312 311 310 310 309 309 309 309 308 308 308 307 306 305 305 304 304 303 303 303 303 301 300 300
324 324 325 326 327 326 325 324 324 323 324 326 328 328 327 327 327 326 325 326 326 326 327 328 328 328 328 327 327 327 327 326 325 325 325 325 325 326 326 326 326 326 326 327 328 329 329 328 328 328 328 328 327 326 325 324 323 321 320 318 316 314 314 313 311 310 310 309 309 309 309 309 309 308 307 307 305 304 304 303 301 300 301 302 301 299 299
325 324 324 325 326 328 327 324 323 324 325 326 327 327 326 327 327 327 327 327 326 326 325 322 323 328 331 328 327 329 330 328 328 328 325 324 325 326 325 325 325 325 325 326 327 328 329 328 327 326 327 327 326 325 325 324 322 321 319 318 316 315 314 314 313 312 310 310 309 309 309 309 309 308 308 307 305 304 304 303 301 299 300 301 300 298 298
326 323 323 324 326 327 327 327 326 325 326 327 327 326 327 328 329 328 328 328 328 329 328 325 323 325 327 326 327 331 333 331 330 328 326 325 327 327 327 326 326 326 326 326 327 328 328 328 327 325 325 325 325 324 323 322 321 320 320 318 317 316 315 314 313 312 311 310 309 309 309 309 309 308 308 306 304 303 302 301 300 299 299 299 298 297 297
328 324 323 326 326 326 327 327 327 326 325 325 325 326 326 326 326 326 326 329 331 331 331 330 327 326 326 325 326 329 329 329 327 326 326 327 327 328 328 327 327 326 326 326 327 327 327 326 325 324 323 324 324 324 323 321 321 321 320 319 318 317 316 314 312 311 311 310 309 309 309 309 309 308 307 306 305 303 302 301 300 300 299 299 298 297 297
327 325 325 325 325 324 326 327 326 326 325 322 322 325 325 322 321 321 322 326 331 332 331 331 331 330 328 325 325 326 326 326 326 326 326 327 327 327 327 327 327 327 326 325 326 327 326 324 323 323 323 323 323 323 322 321 320 319 319 319 318 317 316 313 312 311 311 310 309 309 309 309 308 307 306 305 305 304 302 301 300 300 300 299 298 297 297
327 327 327 325 324 324 326 326 325 324 322 319 319 322 321 319 319 320 320 323 326 329 331 329 329 328 326 322 323 325 326 325 325 326 326 326 326 326 326 326 326 326 326 326 326 326 325 323 322 322 323 323 322 322 322 321 320 319 318 318 317 315 314 312 312 311 310 310 309 309 309 309 308 307 306 305 304 304 303 302 301 300 300 300 299 298 297
327 330 330 328 327 326 324 323 323 324 321 318 317 318 318 318 319 320 321 321 323 325 327 325 323 322 322 321 323 324 323 323 325 325 325 326 326 326 326 326 326 326 326 326 325 325 324 323 322 322 322 322 322 321 321 320 319 318 318 317 316 314 313 312 312 311 310 310 309 309 309 309 308 307 307 306 305 305 304 303 302 301 301 301 301 300 298
324 327 327 327 327 325 323 323 324 324 321 319 320 320 318 319 320 321 321 322 322 323 322 320 319 320 321 322 322 321 323 326 328 326 324 324 325 325 325 325 325 325 325 324 324 325 324 323 322 322 321 321 321 321 320 319 319 318 317 316 315 314 312 311 311 311 310 310 310 309 309 309 308 308 307 307 306 305 305 304 303 303 302 303 303 302 301
318 320 323 324 323 324 324 324 323 322 321 321 322 321 319 320 321 321 320 320 319 319 319 318 318 318 318 318 318 319 323 326 325 323 322 323 324 324 324 324 324 324 324 323 323 323 323 322 321 321 321 320 320 320 320 319 318 317 316 315 314 313 312 311 311 311 311 310 310 309 309 309 309 309 308 307 307 306 305 305 305 304 304 304 304 304 303
317 317 320 320 320 322 324 324 323 323 323 323 322 321 320 320 320 319 318 317 316 316 317 317 317 316 316 315 316 316 318 319 319 319 321 323 322 322 323 324 324 324 323 323 323 322 322 321 321 320 320 319 319 319 319 318 317 317 317 316 314 313 311 311 310 310 310 310 310 309 309 309 309 309 309 308 308 307 307 307 307 306 305 305 305 305 304
316 318 320 320 319 321 323 322 320 319 320 320 320 321 320 319 317 316 316 315 314 314 315 315 316 316 316 315 315 314 314 315 316 317 318 318 320 321 322 322 323 323 322 322 322 322 321 321 321 320 320 319 318 318 318 317 317 317 317 316 314 312 311 310 310 310 309 309 309 310 309 309 309 309 309 309 309 308 308 308 308 308 307 306 306 306 305
315 317 319 318 317 317 319 318 316 315 316 318 318 317 317 316 315 315 314 313 313 313 313 312 313 315 316 315 314 314 314 314 314 315 315 315 318 320 319 319 320 321 321 321 321 321 321 321 320 320 319 319 318 318 318 318 318 317 315 314 312 311 310 310 310 309 309 309 309 309 309 309 309 310 310 310 309 309 309 309 309 309 309 307 306 306 306
315 315 315 315 315 314 315 315 314 313 315 318 319 317 315 315 315 314 314 313 313 312 312 311 311 312 313 314 314 314 313 314 314 314 313 314 317 318 316 315 317 319 320 320 319 319 320 320 319 319 319 319 318 318 318 318 318 316 314 313 312 311 310 310 310 309 309 309 309 309 309 309 309 309 310 310 310 310 310 309 309 309 309 308 307 306 305
316 315 314 316 316 315 314 315 315 313 313 315 317 316 315 315 314 314 313 313 313 312 311 311 310 310 311 312 312 312 312 313 313 313 313 314 315 315 314 314 315 317 319 319 318 318 318 318 318 318 318 318 318 318 317 318 317 315 313 312 312 311 310 310 309 309 309 309 309 309 309 308 308 309 309 310 310 310 310 309 309 309 309 308 307 306 305
316 315 314 315 316 314 313 315 316 314 313 314 315 315 314 314 314 314 313 313 312 312 311 311 311 310 310 311 311 311 311 312 312 313 314 314 312 312 314 314 312 312 315 317 317 317 317 317 317 318 318 317 317 316 316 316 315 314 313 312 312 312 311 310 310 309 309 309 309 309 308 308 308 309 309 309 309 310 310 310 309 309 308 308 306 306 305
314 314 313 313 313 312 312 313 314 314 314 314 314 314 314 314 313 313 313 312 311 311 311 311 311 310 310 311 311 311 311 311 311 312 313 313 312 312 314 313 310 310 312 314 314 314 315 315 316 317 317 316 315 315 315 314 314 313 312 313 312 311 311 310 310 310 310 309 309 309 309 308 309 309 309 309 309 310 310 310 309 308 307 306 305 305 304
309 312 313 312 312 311 310 311 312 313 313 313 313 313 313 314 313 312 311 310 310 311 311 310 310 310 310 310 310 311 311 311 312 312 312 311 311 311 311 310 309 310 312 312 311 312 314 315 315 315 315 315 315 315 315 315 314 313 312 312 311 311 311 310 310 310 310 309 309 309 309 309 309 309 309 309 309 309 310 309 308 307 306 306 305 305 305
304 307 308 309 311 311 310 310 311 311 311 312 313 313 313 313 312 311 310 309 310 311 310 310 310 310 309 310 310 310 310 311 313 313 311 311 310 309 309 309 309 310 310 311 311 312 313 314 314 314 314 315 314 314 314 314 314 313 312 311 310 310 310 310 310 310 310 310 310 310 309 309 309 309 309 310 309 309 309 308 308 307 306 306 306 305 305
301 301 301 303 307 310 311 311 311 310 310 310 311 312 312 312 311 310 310 310 311 311 310 310 310 309 309 310 310 311 310 311 312 312 312 312 312 310 308 308 309 309 309 310 311 311 311 312 312 312 313 314 314 313 313 313 313 312 311 310 311 311 310 310 309 309 309 310 310 310 310 309 309 309 309 309 309 308 308 308 308 307 306 306 306 305 305
299 299 298 298 301 305 308 309 308 307 307 307 308 309 310 310 310 309 310 310 310 310 310 309 309 309 310 310 311 311 311 311 310 310 310 310 310 308 307 308 308 308 309 309 309 309 309 309 310 310 311 312 312 312 312 312 312 312 311 311 311 311 311 310 310 309 309 309 310 310 310 309 309 308 308 308 308 307 307 306 306 306 306 306 306 305 304
297 297 297 296 297 299 302 305 305 304 303 304 305 306 306 306 306 307 308 309 309 310 309 309 308 308 309 309 311 311 311 310 311 310 309 309 308 307 307 308 308 308 308 308 307 307 307 308 308 308 309 309 310 310 311 311 311 311 311 311 311 311 310 310 310 310 310 309 309 309 309 309 309 308 308 308 307 307 307 306 306 305 305 305 305 305 304
296 296 296 296 295 296 297 299 300 300 300 300 302 303 304 303 302 303 305 307 308 307 306 305 305 305 305 306 307 307 308 309 311 311 310 309 308 308 307 308 308 308 307 307 306 306 306 306 306 307 307 308 309 309 309 310 310 311 311 311 311 311 310 310 310 310 310 309 309 309 309 308 308 308 308 308 307 307 307 306 306 306 305 305 305 305 304
294 295 295 295 295 295 295 295 296 297 297 297 298 300 301 300 298 298 300 302 304 304 302 301 301 301 301 302 302 302 303 306 308 309 309 308 308 308 308 308 308 308 308 307 307 307 306 305 305 306 306 307 308 309 309 310 310 310 311 311 311 310 310 310 310 310 310 310 309 309 309 309 308 308 308 308 308 308 307 307 307 306 305 305 305 305 304
292 293 293 294 293 293 293 293 294 294 295 295 295 297 298 297 296 295 296 298 300 301 300 298 297 297 298 298 299 299 300 302 304 305 306 307 307 306 306 307 307 308 307 306 306 306 306 306 306 307 308 308 308 308 309 310 310 309 309 310 310 309 309 309 310 310 310 309 309 309 309 308 308 308 308 308 308 308 308 308 307 306 305 305 305 304 304
291 291 292 292 292 292 292 292 292 293 293 293 293 295 296 296 295 294 294 294 296 297 297 296 295 294 294 295 296 297 297 298 300 301 302 303 303 303 304 304 305 306 306 306 305 305 305 305 306 307 307 308 307 308 309 310 309 309 308 308 308 308 308 308 308 308 308 308 308 309 308 308 308 307 307 307 306 306 306 307 306 306 305 305 305 304 304
291 291 291 291 291 291 291 291 291 291 292 292 292 293 295 295 295 294 293 292 293 293 294 294 293 292 292 292 293 294 295 295 296 297 298 298 299 300 300 301 301 301 302 303 303 303 304 304 305 305 305 305 306 307 308 308 308 308 308 308 308 308 308 307 307 307 307 307 307 307 307 307 307 307 306 306 306 305 305 305 305 305 305 304 304 304 304
Wind_Speed
10 12 15 14 9 9 11 10 10 11 13 14 12 10 6 1 2 6 6 5 5 5 6 6 7 10 10 6 1 8 8 6 5 12 16 15 15 16 17 18 19 19 18 18 17 16 18 22 25 26 27 28 29 29 30 31 30 32 34 35 35 36 36 35 35 35 35 36 36 35 35 36 35 34 33 32 31 29 28 28 28 27 26 27 26 25 25
11 12 15 14 11 13 14 12 12 12 13 14 13 12 9 6 9 9 6 8 7 4 5 5 5 8 8 7 5 4 10 10 7 8 14 17 17 18 19 18 18 18 18 18 17 16 17 21 24 25 26 28 29 28 29 30 30 31 35 35 34 34 35 34 35 35 35 35 36 35 36 35 35 34 33 32 31 30 28 29 28 27 27 27 27 27 26
7 9 11 12 11 12 10 8 12 14 13 13 13 11 10 10 11 9 5 8 7 4 6 4 4 7 9 10 8 3 7 9 9 9 7 10 13 14 17 18 17 17 16 16 16 16 17 22 26 26 26 27 28 29 29 30 30 31 34 35 34 33 33 34 35 36 35 36 36 35 35 35 35 34 33 32 31 30 29 29 29 29 29 28 28 28 28
5 5 5 6 8 8 9 10 10 12 12 11 10 9 10 10 9 6 4 5 4 4 8 5 5 7 9 11 11 6 2 5 10 10 7 6 8 8 8 10 12 14 15 16 17 17 19 24 27 27 28 28 28 29 30 29 30 31 33 34 34 33 33 34 36 36 36 36 36 35 35 35 35 34 33 32 31 30 30 30 30 29 29 30 29 29 30
4 5 8 8 8 8 6 7 7 7 9 10 9 9 11 11 8 4 4 5 5 6 6 4 3 7 9 9 11 7 4 3 4 10 10 8 7 6 4 5 8 12 13 14 16 18 20 25 28 30 31 29 28 30 30 29 30 31 32 33 34 33 34 35 36 37 37 37 35 35 35 35 35 34 33 32 32 31 31 31 31 30 30 31 29 29 31
2 6 9 8 5 3 4 6 7 7 8 9 11 11 11 10 6 5 5 5 5 6 6 5 2 3 6 10 11 7 2 1 3 8 12 12 12 10 9 9 9 11 12 13 16 21 25 28 31 32 32 30 30 31 30 30 31 32 31 32 34 35 35 36 36 36 37 36 35 34 34 34 34 34 33 32 32 32 32 32 32 30 31 31 30 29 31
1 2 6 4 2 4 7 10 10 9 8 8 10 12 12 10 7 7 8 6 4 5 5 6 7 5 6 12 13 9 5 7 9 9 9 12 15 15 14 14 13 13 12 12 15 20 26 30 32 32 31 30 31 31 31 31 31 31 32 32 32 34 35 36 36 36 36 35 35 35 34 34 34 34 33 32 32 32 33 33 32 31 31 31 30 29 30
1 2 2 2 5 7 11 11 8 6 6 8 9 9 11 11 8 8 10 8 7 7 4 6 7 9 10 11 11 11 10 8 9 9 9 10 13 14 13 13 13 14 15 17 19 23 27 30 31 31 31 32 33 32 31 32 31 30 31 32 32 33 34 35 36 36 36 35 35 35 35 34 33 33 33 32 32 33 33 32 31 31 30 30 30 29 29
1 1 2 3 4 7 8 5 3 2 2 7 10 7 9 11 9 8 8 9 10 9 6 5 5 7 8 7 8 10 10 7 7 8 8 9 12 12 12 14 17 21 23 26 27 28 29 30 31 32 32 33 33 31 31 31 30 30 29 30 31 33 35 36 36 36 36 36 35 35 35 35 33 32 31 32 33 33 33 31 30 30 30 29 28 28 28
2 2 2 3 3 4 5 6 5 5 5 9 10 7 6 9 9 9 8 9 10 9 7 6 5 3 4 5 7 7 7 5 5 6 6 8 10 10 11 13 18 23 26 28 30 32 32 30 31 33 34 34 33 31 30 30 30 29 29 30 31 33 34 35 36 36 37 38 37 36 35 35 34 32 31 33 34 35 35 34 32 31 31 29 28 28 26
2 2 2 2 2 4 7 8 6 5 9 12 9 4 3 6 8 6 4 5 8 9 8 7 6 4 4 6 6 6 5 5 5 6 7 7 8 10 14 17 18 21 25 28 31 33 31 30 31 35 36 36 33 30 29 30 30 28 28 31 33 34 34 35 36 36 37 38 38 38 36 35 33 32 32 34 35 35 35 34 31 30 30 29 29 28 26
3 3 3 3 3 4 7 7 5 5 8 9 4 1 4 7 11 10 6 4 5 8 9 8 7 6 7 7 6 6 6 5 3 4 6 7 8 9 14 20 23 25 27 28 28 29 30 31 34 37 37 35 32 30 29 29 30 30 31 32 33 34 35 35 35 34 36 38 38 38 37 34 33 33 33 33 34 33 32 32 31 30 29 29 29 28 26
4 3 3 3 3 4 6 6 6 5 3 4 0 4 5 9 13 14 10 7 5 4 7 9 8 8 9 8 7 5 4 4 3 4 5 9 15 15 15 20 24 25 27 28 28 28 31 33 35 37 37 32 29 30 29 27 27 30 33 34 34 34 35 35 34 34 35 36 36 35 35 34 32 32 33 33 33 32 31 31 30 29 28 28 28 28 27
3 3 3 3 3 5 5 3 3 2 1 1 4 4 5 8 10 14 16 13 8 2 3 7 8 8 8 6 6 6 5 5 5 3 1 5 12 16 19 24 26 24 23 25 27 27 31 36 36 36 35 31 28 29 29 27 28 28 31 34 35 34 34 34 33 33 33 33 33 34 35 34 33 32 32 33 33 32 32 31 30 30 28 28 28 27 26
2 2 2 2 3 5 4 1 3 3 3 4 5 4 5 6 7 11 14 14 12 9 5 5 6 7 6 6 5 4 5 6 6 6 6 5 7 10 14 19 25 25 21 21 24 26 30 33 34 35 35 30 28 28 26 28 31 30 31 35 35 34 34 33 32 33 33 33 34 35 35 35 35 33 32 32 32 32 32 30 30 29 28 28 27 27 26
1 2 3 4 4 3 2 3 2 1 4 3 3 5 5 5 6 7 9 12 13 14 14 9 6 7 6 7 7 2 4 4 2 2 5 6 8 10 13 17 24 26 22 21 23 25 28 30 30 32 33 30 27 27 26 28 32 31 31 35 35 34 34 33 32 33 34 34 34 35 35 36 35 33 32 31 31 31 30 29 28 28 28 28 28 28 27
4 2 2 4 3 5 6 3 3 4 5 2 2 5 7 5 5 4 5 8 10 13 17 13 4 7 6 6 7 4 2 4 5 7 9 8 4 4 10 18 23 24 22 23 24 24 25 29 30 30 32 30 26 26 27 30 32 31 31 32 32 32 32 32 33 35 35 33 34 34 36 36 34 33 33 31 30 30 29 29 28 28 28 29 30 29 27
7 3 6 8 7 8 9 7 3 3 1 1 1 5 7 5 4 4 3 4 8 11 15 15 8 2 6 6 5 6 7 8 8 10 13 13 13 12 6 9 17 24 26 24 24 24 25 27 29 29 30 31 29 27 28 31 31 31 31 31 31 31 31 32 34 36 34 32 31 33 34 35 34 34 34 33 32 30 29 29 29 28 29 29 29 29 27
5 4 7 11 7 5 6 7 8 4 3 2 3 4 7 6 5 5 4 5 7 9 12 15 15 9 1 7 6 6 8 7 7 10 13 12 10 9 8 7 1 13 22 20 18 20 22 25 27 27 28 30 30 30 30 30 30 32 32 32 31 31 32 33 34 34 33 31 31 31 32 32 31 31 32 32 31 31 30 29 28 28 29 29 28 27 27
2 3 5 9 7 2 3 2 7 5 3 4 5 3 9 8 5 5 6 6 6 8 10 10 13 12 9 7 5 6 6 5 6 8 11 11 9 8 4 5 7 0 10 16 17 18 19 23 26 27 27 28 30 31 30 30 31 32 32 32 32 31 32 33 32 32 33 32 32 32 32 32 32 31 32 32 32 33 34 35 33 32 30 30 29 29 27
2 3 6 8 7 4 2 5 6 4 2 3 3 6 9 7 7 6 5 4 4 6 5 5 7 9 14 13 8 5 6 5 5 6 8 9 10 12 7 6 4 1 3 11 17 17 17 22 25 25 25 25 27 29 31 32 33 32 31 31 31 30 30 31 29 30 31 32 33 32 32 32 32 33 34 35 35 35 35 35 36 36 34 33 32 31 29
2 3 4 3 3 4 6 7 7 6 3 2 3 7 9 8 7 6 4 1 0 1 4 6 1 11 13 15 14 8 5 5 6 7 7 6 9 14 11 7 6 8 6 10 15 16 15 19 22 23 24 25 25 28 30 32 34 33 31 28 27 28 29 29 29 29 30 30 31 31 31 30 29 28 28 29 31 32 31 32 33 34 33 33 32 31 30
5 5 5 3 3 5 7 7 6 6 4 3 3 6 9 8 6 6 5 4 3 3 4 3 8 12 11 10 11 9 7 6 6 7 9 7 7 12 13 9 9 11 10 14 18 19 19 20 21 23 25 26 27 27 29 33 35 35 33 29 25 25 27 28 29 30 30 29 28 28 28 28 27 25 23 22 23 25 26 28 30 30 29 28 28 29 29
6 5 3 3 4 6 6 6 6 6 5 4 3 5 7 7 6 5 4 6 7 6 7 9 9 9 11 10 8 5 5 4 5 8 10 11 11 13 13 12 12 12 10 14 17 19 21 22 24 25 26 28 29 28 29 33 35 34 33 30 27 25 25 27 29 30 29 28 27 26 26 26 25 25 23 21 20 20 21 24 26 26 26 25 26 27 27
4 3 2 3 6 8 6 5 4 5 6 5 4 5 6 7 6 4 4 6 7 7 8 8 6 6 9 10 4 3 4 2 4 8 11 13 14 13 10 7 10 12 10 14 17 20 21 23 25 25 25 28 30 30 31 34 35 33 31 30 28 27 26 26 28 27 26 26 26 26 26 26 26 26 25 23 23 23 23 23 23 24 25 25 24 25 25
4 3 2 4 7 6 3 1 3 5 5 3 3 6 7 6 5 5 4 5 6 6 6 6 5 6 8 7 4 3 2 3 8 10 11 10 10 10 9 8 8 6 9 14 19 23 22 22 25 25 24 25 27 28 31 35 35 33 31 29 29 29 29 29 29 28 26 27 27 27 27 27 27 27 27 27 27 25 24 24 24 24 27 26 23 23 25
3 2 1 2 4 1 4 3 4 6 4 2 4 8 7 5 5 4 3 4 7 8 8 7 7 7 7 7 6 6 8 9 9 8 8 7 7 9 12 12 10 5 4 9 17 21 20 20 23 25 25 26 26 26 29 32 32 30 28 27 28 30 31 31 30 27 26 27 28 28 27 27 27 28 28 28 29 28 28 27 25 25 27 28 25 24 24
2 2 1 1 5 3 2 3 7 7 4 5 7 9 5 5 6 5 5 6 6 7 8 10 10 7 6 8 9 7 8 9 9 7 8 9 8 8 13 16 14 9 7 8 13 17 18 20 21 21 22 24 25 26 28 31 30 28 26 26 27 28 28 28 28 28 28 28 27 26 26 26 27 28 28 28 29 29 29 28 26 25 26 27 27 25 24
3 4 3 3 4 5 2 2 6 6 3 4 6 6 5 5 6 5 4 5 5 5 5 8 10 8 8 8 8 6 5 7 8 9 11 15 15 13 15 19 19 17 15 14 14 14 16 19 20 18 18 22 25 26 27 29 30 28 27 27 29 29 29 29 29 29 29 29 28 29 29 28 26 26 26 27 28 28 27 27 26 26 26 25 25 25 24
4 4 4 5 5 5 5 5 6 6 6 5 5 6 6 4 3 5 5 5 6 6 5 5 7 7 8 7 7 8 8 8 11 13 15 17 17 15 17 19 17 13 12 13 14 14 16 19 19 19 19 23 27 28 29 30 31 30 29 29 30 31 31 30 30 30 30 30 29 30 29 27 26 25 25 26 27 27 27 27 27 26 26 25 26 27 27
5 4 4 5 6 5 5 6 5 5 6 7 8 8 6 3 6 7 7 6 5 5 6 6 6 6 6 7 8 10 12 13 16 17 16 16 14 14 15 16 13 10 9 10 12 14 17 19 19 19 21 24 27 30 32 32 32 31 29 28 29 30 30 30 30 30 30 30 29 29 28 26 25 25 24 25 26 26 25 26 26 27 26 25 26 27 28
3 6 6 5 5 5 5 5 5 6 7 8 9 8 5 5 8 7 7 6 5 5 6 6 5 5 8 9 9 10 11 12 16 17 16 15 14 13 12 12 12 13 14 13 12 14 17 19 20 20 20 23 25 28 30 30 30 29 28 27 27 27 28 28 28 27 27 28 28 29 30 30 29 28 27 27 27 26 26 26 27 27 27 26 26 27 28
0 4 5 4 3 3 5 4 4 6 7 9 9 9 5 6 8 7 6 6 7 6 6 6 5 4 8 11 10 11 11 10 11 13 13 14 14 13 12 11 11 14 15 14 13 14 16 19 20 21 20 20 21 22 24 26 27 27 26 25 25 26 26 26 26 26 26 27 28 28 28 28 28 29 28 27 27 27 26 26 28 28 27 27 27 29 30
1 4 5 4 3 3 2 1 2 3 5 7 7 8 5 6 7 6 7 7 7 7 7 9 9 9 10 12 13 13 12 9 6 6 8 11 12 11 11 11 12 14 15 13 12 14 16 18 21 21 19 18 18 19 21 22 23 22 23 22 23 25 26 25 24 25 26 27 28 28 27 24 24 25 26 26 26 27 26 26 27 28 27 26 27 28 30
11 10 6 4 3 4 5 4 2 1 4 5 3 6 4 6 6 6 7 7 8 9 11 14 16 17 17 15 12 11 9 7 6 7 9 10 10 9 10 12 12 13 13 10 9 13 17 18 20 20 19 17 17 18 19 19 18 18 18 18 20 23 25 25 25 26 27 27 27 27 26 25 24 25 25 25 26 27 26 25 26 28 28 27 27 27 29
10 11 9 8 7 3 2 4 4 3 4 4 2 1 4 6 6 7 8 10 13 14 14 14 16 15 14 11 10 9 10 11 11 12 11 10 8 6 8 12 12 11 10 8 7 10 15 17 16 15 15 15 16 17 17 17 17 16 15 15 18 22 24 24 23 23 24 25 26 26 27 27 25 25 25 25 24 25 26 25 25 26 29 30 28 26 27
1 3 6 9 10 8 5 3 2 1 2 3 4 4 5 6 8 10 12 13 15 17 16 14 11 9 9 11 13 14 15 17 16 15 15 14 11 8 7 10 11 9 8 6 4 5 10 13 12 11 11 13 14 16 18 18 17 17 17 17 20 23 25 23 22 21 22 23 24 25 25 24 23 23 24 24 23 24 26 26 24 24 26 29 29 28 27
4 4 3 6 10 11 9 7 5 6 5 4 5 7 9 8 10 12 14 15 16 18 18 17 14 10 10 13 14 14 15 17 17 17 18 17 13 12 12 11 9 7 6 5 4 3 7 13 13 10 10 11 12 15 18 18 17 19 22 21 22 25 26 25 23 22 22 23 23 23 23 24 23 22 21 22 23 25 27 26 24 22 22 22 25 26 25
8 6 2 6 8 10 10 7 7 10 9 5 5 8 9 9 8 10 12 13 14 16 17 18 17 14 10 9 9 10 10 11 12 12 15 16 14 15 15 16 14 10 8 8 8 6 10 15 14 9 7 10 13 16 18 18 18 21 24 24 23 24 25 25 23 23 22 22 23 23 23 23 23 23 22 21 21 23 25 26 24 23 22 20 21 22 22
8 8 6 4 5 8 10 7 6 12 14 11 7 8 7 6 6 8 11 12 13 14 15 15 13 10 7 5 5 6 5 5 6 6 8 12 15 15 13 14 15 12 8 8 9 9 11 12 10 7 6 9 14 18 19 19 20 23 24 23 22 21 21 22 22 22 22 22 22 23 23 22 23 24 25 23 21 20 22 24 25 25 25 24 23 23 22
8 7 8 6 6 7 9 9 5 9 12 13 11 10 10 9 9 10 11 11 11 12 14 14 12 9 7 6 5 5 4 3 5 6 7 10 13 11 7 8 10 10 8 7 7 7 8 7 8 8 7 7 13 19 21 21 22 23 23 21 19 18 19 21 22 22 22 22 23 24 24 23 23 24 25 26 25 24 24 24 24 25 27 26 25 24 24
10 8 7 6 6 8 10 11 7 5 9 11 11 12 13 14 14 12 10 10 10 11 12 14 15 14 12 11 11 11 9 6 8 13 16 14 13 10 6 5 6 7 6 6 5 3 5 5 6 7 6 7 11 16 17 17 18 20 20 19 17 16 17 20 22 22 22 22 23 23 23 23 24 24 24 24 25 27 27 24 22 22 25 25 25 25 24
14 11 8 6 6 9 13 13 8 5 8 8 10 11 11 12 11 11 11 14 15 15 15 15 15 15 15 15 14 13 13 10 11 18 20 17 14 12 9 6 5 5 4 3 2 2 5 5 5 4 5 7 10 12 13 14 15 15 15 15 16 16 19 21 21 22 22 22 22 22 22 22 22 24 24 23 23 24 26 24 21 20 22 24 25 25 25
18 16 13 11 8 10 14 15 11 6 4 7 10 10 8 8 9 12 15 16 16 15 15 13 11 11 12 12 11 10 12 10 11 16 15 12 11 12 10 8 6 5 4 3 2 6 7 6 4 4 5 7 9 10 11 13 14 13 14 14 13 13 15 17 18 20 22 22 22 23 22 19 18 20 23 23 21 21 23 24 22 20 20 21 22 22 22
20 20 20 20 16 13 13 14 15 12 8 11 12 9 7 8 12 15 16 15 14 13 12 10 9 10 12 13 13 13 13 13 14 15 11 7 6 6 7 7 7 7 7 8 8 9 9 7 6 5 6 8 8 7 7 11 14 14 14 14 11 8 8 10 13 15 17 17 19 20 20 16 12 12 15 17 16 17 19 22 23 23 22 22 22 21 21
20 21 22 22 21 18 17 16 17 19 20 19 14 11 12 14 16 15 14 12 10 9 8 7 7 9 12 13 14 17 18 18 18 17 13 9 7 6 7 8 9 9 10 10 9 8 8 7 6 7 7 7 6 5 5 10 13 12 10 9 8 5 5 8 10 10 10 11 13 15 15 14 12 10 10 11 12 13 15 17 19 21 22 23 23 23 23
18 20 21 21 22 24 23 19 17 19 20 16 11 12 17 21 21 20 20 15 8 6 6 9 13 16 17 15 14 15 13 11 11 12 13 11 10 9 9 9 9 10 10 9 7 7 6 5 5 6 7 7 7 7 6 7 9 8 6 7 7 6 6 8 10 9 9 9 10 11 12 12 13 13 13 13 13 14 15 16 17 18 18 19 21 22 23
16 17 18 20 22 25 26 22 16 14 14 12 11 13 17 22 25 26 27 24 18 15 17 21 24 27 28 26 24 21 18 12 7 6 8 9 9 9 10 10 10 11 10 9 8 8 7 5 5 6 6 8 8 6 2 2 5 6 6 6 7 8 8 9 10 11 11 10 10 12 13 13 13 14 15 15 15 15 16 17 19 19 18 17 18 19 20
17 16 18 20 21 23 23 19 13 10 12 16 18 17 17 21 24 25 25 23 21 21 23 25 26 27 28 29 28 28 27 24 17 11 9 9 10 10 10 9 9 8 8 8 8 8 8 6 6 6 6 6 4 3 4 2 4 6 6 6 7 7 7 6 7 10 12 12 11 13 15 16 16 15 16 16 16 16 16 16 18 19 20 20 19 18 18
18 17 17 18 20 21 19 16 14 14 17 19 20 19 18 19 20 21 22 22 20 19 20 23 25 26 27 27 27 27 28 29 26 22 20 18 17 16 15 13 10 8 7 7 8 8 8 8 8 8 8 6 7 8 7 9 10 10 10 10 9 8 7 6 5 6 9 10 9 10 12 12 12 11 10 10 10 12 14 16 18 20 21 21 21 19 18
18 17 16 16 17 18 18 18 17 19 21 22 22 22 21 19 18 20 24 25 22 18 18 20 22 24 25 26 26 27 27 28 27 26 26 25 23 22 22 20 17 13 10 9 10 10 9 7 6 6 6 8 11 9 7 9 8 8 10 11 11 10 9 9 7 7 6 6 6 8 9 8 8 6 4 3 3 4 8 12 17 19 19 19 19 18 17
16 17 18 18 18 18 20 22 23 24 25 26 26 26 23 19 18 21 25 26 24 21 18 18 18 21 25 26 26 26 27 27 27 27 27 26 26 25 25 25 24 22 19 16 15 15 14 12 9 7 8 12 13 11 9 8 7 6 8 8 8 8 7 6 6 5 6 6 6 5 5 5 5 5 4 3 4 5 7 9 12 14 16 16 17 16 15
Wind_Direction
268 270 275 279 287 287 266 233 220 229 235 241 248 245 241 211 206 239 268 294 281 283 319 344 354 353 341 322 42 95 83 63 104 133 135 138 145 151 156 160 163 167 169 171 173 175 172 170 171 175 178 181 181 182 182 182 182 181 179 178 175 174 174 174 174 174 174 173 172 170 169 171 172 174 174 175 176 174 174 177 177 177 177 179 180 181 182
282 278 277 277 278 277 268 238 217 223 232 236 245 255 259 260 253 248 266 285 284 296 300 311 8 6 346 325 322 69 87 78 70 110 138 148 154 159 161 165 169 170 170 170 169 168 170 171 173 174 176 179 180 180 180 181 180 177 175 175 174 173 173 172 172 171 169 169 170 171 172 172 172 173 174 175 175 172 173 177 178 178 180 181 181 182 183
274 262 258 258 262 270 281 263 227 219 225 232 238 248 255 259 260 254 255 274 285 292 271 283 23 14 357 349 335 5 101 104 86 76 104 137 146 159 165 167 169 169 166 165 164 167 172 173 173 173 175 178 178 178 178 179 178 176 174 173 172 172 172 171 170 168 166 167 170 172 173 173 174 175 174 174 173 172 174 177 179 180 182 182 183 185 185
266 273 300 314 314 315 321 306 260 224 219 229 232 233 235 240 246 249 254 262 264 265 271 297 17 16 358 341 320 321 58 117 125 119 111 107 113 127 150 160 163 163 162 162 166 172 174 172 171 173 174 174 174 176 177 177 175 174 174 173 172 171 171 169 169 167 166 168 171 173 173 174 176 176 174 173 173 173 174 177 179 182 184 184 184 186 185
289 332 359 359 353 346 317 291 278 247 229 228 233 237 236 230 221 215 236 231 200 208 242 266 344 3 354 323 297 302 358 27 133 146 146 139 126 119 136 164 165 162 164 169 172 173 171 169 171 174 173 173 173 175 175 174 171 172 173 173 172 170 169 168 167 167 168 170 172 173 174 175 176 175 174 173 174 174 175 177 180 183 185 184 186 187 185
297 341 8 12 358 325 268 276 304 302 275 248 239 239 240 236 213 186 206 216 198 191 186 174 159 360 329 291 280 289 336 319 228 181 164 159 161 168 182 189 179 170 172 175 173 170 169 170 172 173 173 172 172 172 173 172 171 171 172 172 171 169 169 168 167 167 169 171 173 174 176 176 175 175 174 173 174 175 175 178 181 184 184 185 186 186 184
198 20 32 18 286 254 274 293 306 308 301 283 263 251 246 243 230 225 233 235 236 231 195 161 155 164 227 252 264 279 262 209 198 184 166 160 163 174 187 188 181 176 173 169 168 169 169 169 169 169 169 168 167 169 171 172 172 171 172 172 170 168 168 169 169 169 171 172 173 174 176 177 176 175 175 174 174 175 177 180 183 184 184 185 185 182 182
97 59 72 220 255 284 291 297 313 329 332 331 323 293 265 256 238 232 242 237 235 242 211 168 173 185 200 220 239 258 259 226 184 164 163 165 165 173 183 182 179 177 171 166 168 169 168 166 165 165 165 163 162 165 169 171 173 173 171 171 170 168 167 168 170 171 172 172 172 174 177 177 176 176 175 174 173 175 178 180 183 184 183 184 184 181 181
111 130 242 249 284 305 299 298 333 6 351 333 325 303 276 272 250 220 223 228 226 230 223 203 203 205 205 211 230 245 253 236 191 171 170 171 170 174 176 174 178 179 175 171 169 165 163 163 163 162 162 160 159 162 167 170 171 171 169 169 169 167 166 168 170 172 172 172 173 175 177 178 177 177 175 174 174 177 179 179 181 184 184 184 185 183 183
102 129 268 289 313 306 284 279 297 324 327 305 291 275 279 288 267 230 213 212 210 209 224 240 243 237 232 236 244 251 254 239 205 187 186 184 179 176 170 169 175 178 175 170 166 162 160 160 160 160 159 159 159 161 165 168 168 167 167 168 167 166 166 168 169 171 174 174 174 176 177 178 178 177 174 173 177 181 183 180 181 183 185 186 187 185 185
124 149 215 250 255 245 250 264 285 313 306 293 285 276 289 305 306 293 263 231 212 193 196 227 241 249 256 253 253 252 247 242 217 198 209 211 188 169 165 167 170 172 168 164 161 160 158 157 158 158 158 159 160 162 166 167 165 165 167 168 168 167 166 167 169 172 175 177 176 177 179 180 179 176 174 174 178 183 184 181 181 183 186 188 187 185 186
213 210 218 230 240 242 247 256 250 237 267 291 308 234 264 312 329 327 331 318 265 212 195 206 214 215 227 240 247 237 226 232 234 227 228 210 175 164 169 170 167 163 160 157 157 158 159 157 157 157 158 159 161 162 165 168 168 169 171 170 168 167 166 168 171 174 177 179 179 178 179 179 177 176 175 175 176 179 180 179 180 184 188 189 188 189 191
239 234 241 247 254 248 241 249 254 242 269 328 355 198 265 318 326 322 325 327 307 233 195 201 207 212 222 226 222 217 224 237 247 268 243 181 161 161 164 159 155 155 155 156 157 158 157 156 155 157 158 160 162 162 163 168 173 172 170 169 169 168 169 171 174 177 180 181 179 177 178 178 176 175 175 176 176 176 175 175 178 182 186 188 189 191 193
231 216 237 273 288 257 227 227 296 334 53 268 234 236 299 318 329 335 333 322 311 303 185 197 212 222 220 206 197 201 214 223 220 228 235 153 154 158 156 152 151 151 152 154 154 153 155 155 156 158 158 158 161 163 165 170 172 169 167 168 169 170 172 174 176 178 180 179 177 177 179 178 176 175 177 178 178 175 173 174 177 180 182 185 188 190 192
210 224 257 292 279 253 218 155 14 34 123 211 254 295 317 320 340 349 339 324 319 321 298 234 217 216 196 162 162 206 230 228 212 181 155 148 150 146 144 149 152 149 146 149 150 150 154 157 157 158 159 158 161 165 169 171 169 166 167 169 170 171 173 175 177 177 178 178 178 180 180 179 177 176 176 176 175 174 174 175 177 180 182 185 187 188 191
261 229 236 238 245 251 190 120 82 269 234 238 302 311 309 328 350 354 339 327 326 330 320 292 218 184 169 147 142 184 280 276 254 152 129 147 165 157 148 150 150 146 144 146 145 146 152 155 158 160 160 158 161 166 169 170 168 167 167 169 171 171 172 173 174 174 175 177 178 179 179 178 177 175 173 172 172 174 176 176 177 180 183 184 184 184 185
274 230 253 276 321 12 17 52 142 216 252 288 339 298 291 315 347 348 328 318 326 341 337 320 239 157 139 138 141 132 36 14 37 50 49 46 46 100 132 141 143 142 142 142 141 143 150 156 160 162 161 158 159 165 168 169 171 171 168 167 168 169 168 167 167 169 172 173 174 175 176 177 176 174 172 171 170 173 175 178 180 179 179 181 182 182 181
283 306 359 350 2 27 11 336 262 189 155 83 295 290 289 306 328 297 267 317 344 354 355 345 324 210 141 129 127 110 82 60 59 63 61 53 35 21 43 125 139 143 144 144 145 147 152 158 162 163 162 160 160 165 168 169 172 173 169 167 166 165 163 163 164 167 170 171 172 173 174 176 177 176 175 172 171 173 176 179 179 176 175 178 181 181 182
304 313 356 351 348 40 35 332 302 321 30 47 36 336 294 289 311 299 297 11 15 7 9 356 325 304 100 101 95 94 91 88 86 81 83 87 69 28 353 330 2 142 144 144 146 147 150 158 162 161 162 164 164 167 170 170 172 172 168 164 162 161 162 163 166 169 171 170 171 172 173 175 176 175 175 174 172 174 177 178 177 177 178 180 180 179 183
338 270 320 333 326 4 72 290 278 290 330 10 29 326 278 285 327 330 331 2 22 29 25 348 311 320 360 33 69 91 85 90 104 100 107 122 110 74 55 307 311 339 144 145 145 146 148 154 159 160 164 168 168 169 171 171 170 168 164 161 159 159 162 165 166 169 170 170 170 171 173 175 176 175 176 177 177 179 183 183 181 181 181 183 183 184 188
317 271 304 328 337 343 303 259 272 290 323 358 344 280 280 321 4 359 342 335 359 37 35 281 288 360 11 359 6 67 87 85 93 97 106 122 110 94 115 197 223 32 147 151 146 146 148 151 155 158 161 165 168 169 170 171 168 163 160 159 158 159 161 163 164 167 170 171 171 172 173 176 179 180 181 182 183 185 189 190 189 188 187 187 189 192 195
279 248 264 297 330 311 271 268 292 310 317 358 339 296 304 342 7 3 11 43 237 209 221 240 349 48 31 5 4 20 52 72 86 95 91 93 105 112 134 178 153 123 154 166 150 147 151 149 149 152 154 158 162 164 167 168 167 163 160 157 156 158 160 162 165 168 169 171 173 174 174 176 178 181 184 188 189 188 190 193 194 194 195 195 196 199 200
237 236 234 220 231 266 271 276 288 291 296 347 355 316 312 329 344 342 359 35 29 314 292 347 49 63 57 32 17 5 356 12 39 70 79 71 83 106 118 124 111 116 160 181 167 159 160 155 149 148 150 154 157 158 161 165 165 164 162 157 154 158 162 165 168 169 170 171 173 174 175 176 176 176 179 186 191 192 192 194 196 198 200 202 204 204 203
243 258 260 232 233 258 284 305 306 304 313 332 336 315 309 316 322 322 349 27 23 1 3 18 34 57 68 61 40 360 329 340 12 43 59 58 60 77 94 107 110 116 159 191 179 164 160 159 156 154 154 157 160 159 159 162 162 161 160 158 156 160 165 168 169 170 170 172 173 173 174 174 174 174 172 173 181 188 193 197 199 200 202 206 208 207 207
242 243 211 231 253 264 275 286 291 295 299 303 313 313 303 302 314 333 17 39 28 17 30 32 15 34 70 78 64 296 266 252 71 65 55 46 50 61 71 97 115 124 162 190 174 158 155 156 157 159 159 162 164 162 161 163 163 160 160 159 158 159 161 163 165 168 171 173 174 174 174 173 173 173 173 173 178 184 190 195 199 202 203 206 208 207 208
226 227 197 237 248 250 256 249 224 231 242 258 297 293 285 293 320 340 9 44 41 31 42 51 30 29 62 91 122 184 179 95 75 76 74 66 67 70 60 51 72 117 185 185 161 152 153 152 152 157 159 161 164 163 162 164 165 164 164 163 161 163 165 165 167 171 174 177 178 178 177 177 176 176 178 181 183 182 183 186 191 196 200 203 205 205 208
222 248 10 318 287 315 80 73 266 249 211 164 267 271 276 303 329 340 8 42 52 45 37 38 41 36 37 46 66 99 106 94 79 72 72 69 72 86 92 86 78 88 185 161 141 142 146 143 146 155 160 162 164 162 162 164 164 162 162 160 158 162 167 169 171 174 177 181 182 181 180 181 182 182 182 184 184 183 182 182 183 185 191 197 201 204 209
317 295 341 317 292 298 114 169 253 259 196 183 243 264 287 329 335 357 35 44 50 52 34 24 29 38 34 34 45 65 83 85 83 76 73 73 78 107 130 135 134 138 139 121 120 127 129 131 139 148 157 164 164 160 161 164 162 159 158 157 157 161 167 173 178 180 181 183 184 182 183 185 187 187 186 183 183 183 183 184 183 180 184 193 200 203 206
334 315 309 288 290 309 326 272 282 297 278 230 257 283 295 303 322 356 35 51 55 56 39 22 22 32 42 45 50 54 60 76 84 82 86 94 99 111 130 136 137 137 131 121 116 116 116 124 131 134 144 160 163 158 157 159 159 159 160 161 164 168 174 180 183 182 182 183 183 183 186 187 187 189 189 185 181 180 180 182 183 181 182 189 196 199 202
302 304 314 322 333 349 348 326 323 338 339 329 334 328 301 293 351 13 19 42 49 41 35 26 19 28 42 48 50 54 65 88 100 93 89 93 98 103 110 114 114 112 106 105 109 113 116 121 124 123 133 150 159 159 157 158 162 166 167 168 172 177 181 182 181 180 180 182 182 185 187 185 183 185 187 184 181 180 180 182 183 183 185 191 195 197 200
280 305 334 337 339 348 337 322 334 358 351 346 349 341 331 19 51 36 24 33 35 27 29 27 20 28 34 27 34 54 71 93 107 105 99 99 100 101 104 106 105 107 112 113 117 122 125 126 128 130 138 148 157 162 163 162 162 164 166 169 174 179 181 180 179 181 181 180 180 184 185 181 179 181 183 184 183 182 179 180 183 186 190 194 196 199 200
311 333 337 332 336 341 328 328 359 7 356 355 352 340 350 59 63 45 36 35 28 25 26 16 10 20 12 3 19 51 68 89 106 110 109 110 109 106 108 112 114 121 129 133 132 133 135 135 138 145 150 152 155 160 163 163 162 163 166 171 174 176 177 177 178 181 181 180 181 184 184 181 181 182 183 184 185 183 181 182 186 190 193 195 198 202 203
65 323 313 314 339 336 321 342 20 12 4 12 1 337 346 63 63 44 37 31 19 17 8 347 347 19 12 6 26 49 48 58 89 104 108 113 117 118 120 124 126 131 138 143 144 147 150 150 151 155 158 157 158 161 162 163 164 166 168 172 174 174 176 179 181 180 180 181 185 187 186 184 183 184 185 186 185 184 185 187 190 192 195 199 203 206 207
254 251 246 239 221 216 240 319 13 6 24 32 359 327 345 62 64 48 43 29 8 6 8 2 14 40 37 27 35 44 40 38 57 76 88 103 111 114 118 121 126 135 142 143 142 147 154 159 160 161 162 163 164 165 165 165 164 165 167 170 174 175 176 178 180 179 180 183 186 188 188 187 186 187 187 186 185 186 189 190 192 194 197 202 207 210 210
337 315 296 280 254 198 175 177 217 17 68 71 356 323 5 67 65 49 48 36 13 14 29 36 41 46 44 39 37 37 34 34 33 38 63 85 91 96 108 114 118 125 128 122 123 138 151 159 162 163 166 168 166 167 168 168 166 166 168 174 178 179 177 178 181 183 184 184 183 183 185 186 187 188 188 185 185 187 187 188 193 197 200 204 208 209 209
338 319 322 332 331 332 150 182 210 195 124 126 151 6 42 61 57 53 58 49 28 20 31 50 57 52 45 42 40 33 26 22 23 32 47 54 46 54 93 107 110 110 103 87 88 122 144 155 161 164 169 173 174 174 174 171 169 172 179 184 185 183 180 180 182 185 186 184 183 183 185 185 186 187 188 187 188 188 189 192 199 202 203 205 208 209 207
29 338 346 342 331 325 326 307 254 197 102 116 123 102 76 61 56 60 64 55 37 26 28 42 55 64 65 60 52 42 31 22 20 26 33 30 22 33 77 102 110 107 97 85 77 112 147 160 165 167 172 177 180 179 177 172 172 179 187 190 188 183 180 179 182 185 186 186 187 188 188 188 188 189 192 194 195 195 197 201 205 204 204 207 210 211 209
23 32 357 308 297 298 307 325 6 36 46 64 83 82 78 71 64 65 65 57 45 39 38 37 39 53 72 70 58 46 34 24 22 24 22 21 35 58 65 66 76 91 108 124 118 124 159 162 157 157 172 181 182 182 181 179 178 182 186 186 183 181 179 179 181 184 186 188 189 191 192 193 193 193 193 195 196 198 202 206 208 208 209 208 207 206 205
1 10 316 266 285 303 308 325 15 34 38 53 86 90 83 79 79 81 77 68 60 54 47 40 37 41 50 59 62 56 39 26 28 27 18 19 44 69 63 51 54 73 112 131 122 120 149 157 154 150 164 179 185 187 187 185 183 182 181 179 177 178 180 181 183 186 188 189 190 191 193 195 196 197 196 195 194 198 204 208 211 214 215 210 204 202 203
356 358 350 347 355 341 323 324 26 44 40 43 73 97 90 77 85 91 82 73 70 66 57 48 44 39 30 35 64 70 43 12 11 19 26 43 64 72 63 51 54 66 95 123 125 127 140 155 168 177 172 176 183 183 182 182 182 178 175 174 174 177 182 185 185 187 189 189 191 192 193 194 197 202 204 205 203 203 206 210 215 217 215 211 210 212 214
351 349 349 0 19 0 332 326 12 57 53 50 57 62 57 62 84 95 87 78 78 78 69 60 51 36 11 353 358 24 39 33 23 28 51 79 86 80 61 43 45 53 74 100 116 129 136 147 176 190 181 168 167 165 163 167 172 172 172 173 174 178 185 189 190 192 192 192 193 195 196 196 198 202 206 210 211 210 211 216 219 217 212 210 211 212 212
350 350 347 354 19 17 346 328 335 50 68 68 64 56 57 70 82 85 77 72 76 80 75 64 54 43 27 11 13 28 37 44 55 60 68 84 98 97 85 57 39 48 71 83 86 119 144 151 168 179 170 158 158 158 156 158 161 166 172 177 180 183 189 192 193 194 195 196 197 198 197 197 198 201 203 207 210 212 215 219 220 213 207 206 206 204 204
347 350 348 346 12 15 352 334 337 48 75 83 82 73 71 79 84 80 71 67 68 71 68 58 50 44 34 27 29 30 19 18 59 78 78 79 84 85 79 61 50 61 78 76 65 147 162 163 168 169 159 157 163 164 159 155 153 155 164 174 182 189 194 195 195 196 196 197 200 200 198 199 203 206 208 210 213 215 216 217 217 212 207 205 204 203 205
351 356 353 347 2 18 6 350 346 7 67 98 103 97 86 79 81 81 77 71 69 74 74 62 48 38 27 19 18 13 5 20 76 97 92 77 70 70 69 68 73 77 69 64 130 159 159 154 152 154 153 158 162 162 159 160 158 150 142 141 147 162 177 186 191 194 197 200 204 205 203 203 206 208 210 213 215 215 212 210 211 210 206 203 204 207 210
354 358 356 352 356 13 19 3 346 347 30 75 91 98 96 92 93 93 89 82 78 78 75 64 52 42 30 23 28 36 44 63 85 93 90 80 70 65 66 72 78 78 71 73 95 120 125 115 106 116 135 149 153 150 157 168 169 160 148 141 136 135 152 165 170 175 182 188 193 195 196 195 193 195 202 206 208 208 209 210 213 215 214 213 215 218 218
356 359 1 360 359 4 14 14 5 9 28 42 40 28 40 65 81 85 83 86 96 97 84 74 70 57 43 41 53 63 71 79 82 78 78 86 90 86 88 89 85 82 79 75 78 89 95 95 102 115 125 137 145 148 166 175 174 170 167 169 168 168 179 182 179 175 178 185 191 195 198 203 206 209 211 212 212 212 211 211 213 217 220 223 224 223 220
357 1 3 3 4 6 11 16 20 24 31 33 20 13 28 43 51 48 41 42 63 98 83 64 58 50 43 45 59 69 75 85 90 83 79 80 82 89 98 97 82 71 68 66 72 87 96 108 126 132 137 146 149 147 160 179 181 180 180 179 172 169 178 187 191 191 193 200 209 214 215 217 221 224 226 226 228 228 225 221 218 216 216 218 221 222 222
1 5 3 5 12 16 15 14 18 25 25 17 8 13 26 37 42 41 37 37 47 58 54 48 46 43 41 42 45 46 49 60 86 98 89 87 92 98 98 90 73 60 54 58 71 83 90 105 127 138 148 155 151 138 130 229 220 210 203 197 197 205 209 207 203 200 197 196 205 213 215 213 214 217 220 224 231 234 234 232 230 228 227 227 227 224 222
4 9 10 13 20 23 18 11 10 17 17 9 6 11 26 39 41 36 31 33 41 49 49 45 41 39 39 39 37 37 42 52 61 67 71 77 82 80 77 75 67 57 55 66 77 79 79 88 104 120 133 139 125 53 31 66 145 157 161 169 183 196 201 202 204 205 204 202 206 212 214 213 214 217 220 226 233 237 237 235 234 234 233 230 225 219 216
12 15 17 18 21 24 22 13 7 12 17 14 9 11 28 45 46 33 24 26 34 43 47 45 39 34 33 35 34 34 40 50 58 62 65 66 62 55 50 49 46 35 35 54 71 75 77 84 97 108 107 79 34 32 67 99 105 106 113 122 126 124 119 119 136 172 190 199 206 209 207 206 208 213 217 221 227 232 236 237 235 230 225 221 219 221 225
20 20 20 19 22 27 28 24 17 17 23 24 19 18 28 46 52 40 30 28 31 35 40 41 37 31 28 30 32 33 37 43 51 58 61 62 60 57 56 55 53 49 45 43 42 41 41 49 72 93 75 28 15 33 89 114 107 95 100 106 105 103 103 106 110 121 135 152 173 183 183 182 184 190 194 197 204 214 222 227 225 220 216 217 222 228 232
28 26 24 24 25 26 29 29 26 25 27 29 27 25 27 36 45 43 37 33 31 32 36 39 36 31 27 28 30 33 36 39 44 49 52 54 54 56 57 57 56 58 61 59 51 46 43 40 38 34 24 16 20 38 70 92 96 98 100 96 91 90 91 89 90 98 108 118 135 157 176 189 198 200 201 201 199 193 196 208 218 221 222 226 229 230 231